Blytheville, AR

4:22 AM CST on December 06, 2016 (GMT -0600)
Blytheville Municipal

Weather History for KHKA - December, 2012

Change the Weather History Date:

Friday, December 7, 2012

  Actual Average Record
Temperature  
Mean Temperature 59 °F -  
Max Temperature 64 °F 50 °F 75 °F (1966)
Min Temperature 54 °F 34 °F 12 °F (1950)
Degree Days  
Heating Degree Days 6    
Growing Degree Days 9 (Base 50)    
Moisture  
Dew Point 56 °F    
Average Humidity 89    
Maximum Humidity 100    
Minimum Humidity 73    
Precipitation  
Precipitation 0.00 in - - ()
Sea Level Pressure  
Sea Level Pressure 29.90 in    
Wind  
Wind Speed 5 mph (SSW)    
Max Wind Speed 16 mph    
Max Gust Speed 22 mph    
Visibility 8 miles    
Events Rain    
Averages and records for this station are not official NWS values.
T = Trace of Precipitation, MM = Missing Value Source: NWS Daily Summary

Daily Weather History Graph

Daily Weather History Graph

Search for Another Location

Airport or City:

Trip Planner

Search our weather history database for the weather conditions in past years. The results will help you decide how hot, cold, wet, or windy it might be!

Date:

Astronomy

Dec. 07, 2012 Rise Set
Actual Time 6:56 AM CST 4:45 PM CST
Civil Twilight 6:28 AM CST 5:13 PM CST
Nautical Twilight 5:56 AM CST 5:45 PM CST
Astronomical Twilight 5:25 AM CST 6:16 PM CST
Moon 12:26 AM CST (12/7) 12:32 PM CST (12/7)
Length of Visible Light 10h 44m
Length of Day
9h 48m
Last Quarter, 38% of the Moon is Illuminated
Dec 7
Last Quarter
Dec 13
New
Dec 19
First Quarter
Dec 28
Full
Jan 4
Last Quarter

Hourly Weather History & Observations

Time (CST) Temp. Dew Point Humidity Pressure Visibility Wind Dir Wind Speed Gust Speed Precip Events Conditions
12:53 AM 54.0 °F 53.1 °F 97% 29.93 in 7.0 mi Calm Calm - N/A   Overcast
1:17 AM 55.4 °F 53.6 °F 94% 29.93 in 6.0 mi Calm Calm - N/A   Overcast
1:53 AM 55.0 °F 54.0 °F 96% 29.93 in 5.0 mi Calm Calm - 0.00 in   Overcast
2:00 AM 55.4 °F 53.6 °F 94% 29.92 in 5.0 mi SSE 4.6 mph - N/A   Overcast
2:53 AM 57.0 °F 55.9 °F 96% 29.91 in 8.0 mi South 6.9 mph - N/A   Mostly Cloudy
3:53 AM 55.9 °F 55.0 °F 97% 29.90 in 4.0 mi South 5.8 mph - N/A   Mostly Cloudy
4:37 AM 57.2 °F 55.4 °F 94% 29.90 in 6.0 mi South 5.8 mph - N/A   Overcast
4:53 AM 57.0 °F 55.9 °F 96% 29.91 in 7.0 mi South 5.8 mph - N/A   Overcast
5:19 AM 57.2 °F 55.4 °F 94% 29.91 in 6.0 mi South 3.5 mph - N/A   Mostly Cloudy
5:40 AM 57.2 °F 55.4 °F 94% 29.91 in 6.0 mi South 4.6 mph - N/A   Overcast
5:53 AM 57.0 °F 55.9 °F 96% 29.91 in 6.0 mi South 4.6 mph - N/A   Overcast
6:00 AM 57.2 °F 55.4 °F 94% 29.92 in 6.0 mi South 4.6 mph - 0.00 in Rain Light Rain
6:15 AM 57.2 °F 55.4 °F 94% 29.92 in 6.0 mi South 4.6 mph - 0.00 in   Overcast
6:53 AM 57.0 °F 55.9 °F 96% 29.92 in 5.0 mi SW 3.5 mph - 0.00 in   Overcast
7:43 AM 57.2 °F 55.4 °F 94% 29.93 in 4.0 mi SSW 3.5 mph - N/A   Overcast
7:53 AM 57.0 °F 55.9 °F 96% 29.93 in 4.0 mi SSW 4.6 mph - N/A   Overcast
8:03 AM 57.2 °F 57.2 °F 100% 29.93 in 4.0 mi SSW 5.8 mph - N/A   Overcast
8:11 AM 57.2 °F 57.2 °F 100% 29.93 in 4.0 mi SSW 6.9 mph - N/A   Overcast
8:53 AM 59.0 °F 57.9 °F 96% 29.93 in 5.0 mi SSW 8.1 mph - N/A   Overcast
9:28 AM 60.8 °F 57.2 °F 88% 29.94 in 7.0 mi SW 9.2 mph - N/A   Overcast
9:40 AM 60.8 °F 57.2 °F 88% 29.94 in 8.0 mi SW 9.2 mph 17.3 mph N/A   Overcast
9:53 AM 60.1 °F 57.9 °F 93% 29.93 in 9.0 mi SW 9.2 mph - N/A   Overcast
10:02 AM 60.8 °F 57.2 °F 88% 29.94 in 9.0 mi SW 9.2 mph - N/A   Overcast
10:41 AM 62.6 °F 57.2 °F 82% 29.93 in 10.0 mi SW 8.1 mph - N/A   Overcast
10:53 AM 62.1 °F 57.0 °F 84% 29.93 in 10.0 mi SW 10.4 mph - N/A   Overcast
11:18 AM 60.8 °F 57.2 °F 88% 29.91 in 10.0 mi SW 8.1 mph - N/A   Overcast
11:31 AM 60.8 °F 57.2 °F 88% 29.90 in 10.0 mi SW 10.4 mph 17.3 mph N/A   Overcast
11:53 AM 63.0 °F 57.0 °F 81% 29.89 in 10.0 mi SSW 11.5 mph - N/A   Mostly Cloudy
12:03 PM 64.4 °F 57.2 °F 77% 29.89 in 10.0 mi SW 9.2 mph - N/A   Mostly Cloudy
12:31 PM 62.6 °F 57.2 °F 82% 29.88 in 10.0 mi SW 9.2 mph - N/A   Overcast
12:53 PM 63.0 °F 57.0 °F 81% 29.87 in 10.0 mi WSW 10.4 mph - N/A   Overcast
1:34 PM 64.4 °F 55.4 °F 73% 29.85 in 10.0 mi SSW 16.1 mph 21.9 mph N/A   Mostly Cloudy
1:53 PM 64.0 °F 55.9 °F 75% 29.85 in 10.0 mi SW 13.8 mph 20.7 mph N/A   Scattered Clouds
2:53 PM 64.0 °F 55.9 °F 75% 29.84 in 10.0 mi SW 12.7 mph - N/A   Partly Cloudy
3:53 PM 63.0 °F 55.9 °F 78% 29.85 in 10.0 mi SW 8.1 mph - N/A   Clear
4:53 PM 60.1 °F 55.0 °F 83% 29.86 in 10.0 mi SSW 4.6 mph - N/A   Clear
5:53 PM 59.0 °F 55.0 °F 87% 29.86 in 10.0 mi Calm Calm - N/A   Mostly Cloudy
7:51 PM 57.2 °F 55.4 °F 94% 29.89 in 10.0 mi Calm Calm - N/A   Overcast
7:53 PM 57.9 °F 55.0 °F 90% 29.89 in 10.0 mi Calm Calm - N/A   Overcast
8:07 PM 59.0 °F 55.4 °F 88% 29.90 in 10.0 mi South 3.5 mph - N/A   Overcast
8:14 PM 59.0 °F 55.4 °F 88% 29.90 in 10.0 mi SSW 4.6 mph - N/A   Overcast
8:53 PM 59.0 °F 55.9 °F 90% 29.89 in 10.0 mi South 3.5 mph - N/A   Overcast
9:53 PM 59.0 °F 55.0 °F 87% 29.88 in 10.0 mi South 5.8 mph - N/A   Overcast
10:53 PM 59.0 °F 55.0 °F 87% 29.88 in 10.0 mi South 5.8 mph - N/A   Overcast
11:53 PM 57.9 °F 55.0 °F 90% 29.88 in 10.0 mi SW 4.6 mph - N/A   Overcast